Clemson, SC

8:13 PM EDT on September 20, 2017 (GMT -0400)
Oconee County Regional

Weather History for KCEU - November, 2013

Change the Weather History Date:

Saturday, November 23, 2013

  Actual Average Record
Temperature  
Mean Temperature 55 °F -  
Max Temperature 64 °F 60 °F 77 °F (1940)
Min Temperature 45 °F 36 °F 13 °F (1937)
Degree Days  
Heating Degree Days 10    
Growing Degree Days 5 (Base 50)    
Moisture  
Dew Point 50 °F    
Average Humidity 78    
Maximum Humidity 94    
Minimum Humidity 32    
Precipitation  
Precipitation 0.00 in - - ()
Sea Level Pressure  
Sea Level Pressure 30.13 in    
Wind  
Wind Speed 2 mph (NW)    
Max Wind Speed 8 mph    
Max Gust Speed -    
Visibility 4 miles    
Events Fog    
Averages and records for this station are not official NWS values.
T = Trace of Precipitation, MM = Missing Value Source: NWS Daily Summary

Daily Weather History Graph

Daily Weather History Graph

Search for Another Location

Airport or City:

Trip Planner

Search our weather history database for the weather conditions in past years. The results will help you decide how hot, cold, wet, or windy it might be!

Date:

Astronomy

Nov. 23, 2013 Rise Set
Actual Time 7:13 AM EST 5:22 PM EST
Civil Twilight 6:46 AM EST 5:49 PM EST
Nautical Twilight 6:15 AM EST 6:20 PM EST
Astronomical Twilight 5:45 AM EST 6:50 PM EST
Moon 10:44 PM EST (11/23) 11:34 AM EST (11/23)
Length of Visible Light 11h 03m
Length of Day
10h 09m
Waning Gibbous, 70% of the Moon is Illuminated
Nov 23
Waning Gibbous
Nov 25
Last Quarter
Dec 2
New
Dec 9
First Quarter
Dec 17
Full

Hourly Weather History & Observations

Time (EST) Temp. Windchill Dew Point Humidity Pressure Visibility Wind Dir Wind Speed Gust Speed Precip Events Conditions
12:19 AM 59.0 °F - 55.4 °F 88% 30.15 in 3.0 mi WSW 3.5 mph - N/A   Overcast
12:54 AM 60.1 °F - 55.9 °F 86% 30.13 in 3.0 mi WSW 3.5 mph - N/A   Overcast
1:54 AM 60.1 °F - 55.9 °F 86% 30.12 in 4.0 mi Calm Calm - N/A   Overcast
2:29 AM 59.0 °F - 55.4 °F 88% 30.14 in 2.5 mi Calm Calm - N/A   Overcast
2:43 AM 59.0 °F - 55.4 °F 88% 30.14 in 3.0 mi Calm Calm - N/A   Overcast
2:54 AM 59.0 °F - 55.0 °F 87% 30.12 in 3.0 mi Calm Calm - N/A   Mostly Cloudy
3:02 AM 57.2 °F - 53.6 °F 88% 30.13 in 2.5 mi Calm Calm - N/A   Scattered Clouds
3:15 AM 57.2 °F - 55.4 °F 94% 30.13 in 0.8 mi Calm Calm - N/A   Scattered Clouds
3:30 AM 57.2 °F - 55.4 °F 94% 30.12 in 2.0 mi North 3.5 mph - N/A   Mostly Cloudy
3:42 AM 59.0 °F - 55.4 °F 88% 30.11 in 2.5 mi North 3.5 mph - N/A   Overcast
3:54 AM 59.0 °F - 55.0 °F 87% 30.10 in 2.0 mi Calm Calm - N/A   Overcast
4:04 AM 59.0 °F - 55.4 °F 88% 30.12 in 1.5 mi North 3.5 mph - N/A   Overcast
4:20 AM 59.0 °F - 55.4 °F 88% 30.11 in 0.5 mi Calm Calm - N/A Fog Fog
4:39 AM 59.0 °F - 55.4 °F 88% 30.11 in 0.2 mi Calm Calm - N/A Fog Fog
4:54 AM 57.9 °F - 55.0 °F 90% 30.10 in 0.2 mi Calm Calm - N/A Fog Fog
5:14 AM 57.2 °F - 55.4 °F 94% 30.11 in 0.2 mi Calm Calm - N/A Fog Fog
5:30 AM 57.2 °F - 55.4 °F 94% 30.11 in 0.2 mi Calm Calm - N/A Fog Fog
5:54 AM 57.9 °F - 55.0 °F 90% 30.09 in 0.2 mi Calm Calm - N/A Fog Fog
6:07 AM 57.2 °F - 55.4 °F 94% 30.10 in 0.2 mi Calm Calm - N/A Fog Fog
6:54 AM 57.9 °F - 55.0 °F 90% 30.11 in 0.2 mi WNW 3.5 mph - N/A Fog Fog
7:18 AM 57.2 °F - 55.4 °F 94% 30.12 in 0.2 mi Calm Calm - N/A Fog Fog
7:52 AM 57.2 °F - 55.4 °F 94% 30.13 in 0.2 mi North 3.5 mph - N/A Fog Fog
7:54 AM 57.9 °F - 55.0 °F 90% 30.12 in 0.2 mi Calm Calm - N/A Fog Fog
8:54 AM 59.0 °F - 55.0 °F 87% 30.12 in 0.2 mi Calm Calm - N/A Fog Fog
9:23 AM 59.0 °F - 55.4 °F 88% 30.16 in 0.8 mi Calm Calm - N/A   Overcast
9:33 AM 59.0 °F - 55.4 °F 88% 30.16 in 1.0 mi Calm Calm - N/A   Overcast
9:43 AM 59.0 °F - 55.4 °F 88% 30.16 in 0.5 mi Calm Calm - N/A Fog Fog
9:54 AM 59.0 °F - 55.9 °F 90% 30.15 in 0.8 mi Calm Calm - N/A   Mist
10:06 AM 59.0 °F - 55.4 °F 88% 30.16 in 2.0 mi Calm Calm - N/A   Overcast
10:16 AM 59.0 °F - 55.4 °F 88% 30.16 in 5.0 mi Calm Calm - N/A   Overcast
10:54 AM 59.0 °F - 55.0 °F 87% 30.14 in 10.0 mi Calm Calm - N/A   Overcast
11:15 AM 60.8 °F - 55.4 °F 82% 30.15 in 10.0 mi Calm Calm - N/A   Overcast
11:54 AM 62.1 °F - 55.0 °F 78% 30.13 in 10.0 mi Calm Calm - N/A   Scattered Clouds
12:54 PM 63.0 °F - 54.0 °F 72% 30.10 in 10.0 mi Calm Calm - N/A   Mostly Cloudy
1:54 PM 63.0 °F - 54.0 °F 72% 30.08 in 10.0 mi Calm Calm - N/A   Overcast
2:54 PM 64.0 °F - 52.0 °F 65% 30.07 in 10.0 mi Calm Calm - N/A   Mostly Cloudy
3:17 PM 64.4 °F - 51.8 °F 64% 30.09 in 10.0 mi Calm Calm - N/A   Mostly Cloudy
3:29 PM 64.4 °F - 51.8 °F 64% 30.09 in 10.0 mi North 3.5 mph - N/A   Mostly Cloudy
3:54 PM 64.0 °F - 50.0 °F 60% 30.08 in 10.0 mi NW 5.8 mph - N/A   Mostly Cloudy
4:54 PM 61.0 °F - 44.1 °F 54% 30.10 in 10.0 mi NNW 3.5 mph - N/A   Scattered Clouds
5:54 PM 57.9 °F - 41.0 °F 53% 30.13 in 10.0 mi NNW 4.6 mph - N/A   Clear
6:54 PM 54.0 °F - 36.0 °F 51% 30.15 in 10.0 mi NW 6.9 mph - N/A   Clear
7:54 PM 52.0 °F - 27.0 °F 38% 30.16 in 10.0 mi NW 8.1 mph - N/A   Clear
8:54 PM 50.0 °F - 23.0 °F 35% 30.17 in 10.0 mi Calm Calm - N/A   Clear
9:54 PM 48.0 °F - 19.9 °F 33% 30.18 in 10.0 mi NW 8.1 mph - N/A   Clear
10:54 PM 46.9 °F - 18.0 °F 32% 30.19 in 10.0 mi NW 5.8 mph - N/A   Clear
11:54 PM 45.0 °F 42.6 °F 18.0 °F 34% 30.20 in 10.0 mi NNW 4.6 mph - N/A   Clear